OneWeb SL0066

operational
NORAD ID: 45424 Int'l Des: 2020-020 Owner: ONEWEB Country: UK Constellation: oneweb
LEOCIRCULARPOLARONEWEB_TYPE

关于 OneWeb SL0066

正在加载描述...

实时位置

正在加载3D地球...

即将过境

高度历史

Altitude vs Time

uPlot chart will show altitude changes over time

两行轨道根数

1 45424U 20020A 25350.95002080 .00000497 00000-0 13666-2 0 9996
2 45424 87.8862 57.3519 0002060 103.4935 256.6422 13.11415247278792
Epoch: Dec 16, 2025 • Age: 11 hours

当前状态

高度 1220.4 km
速度 7.24 km/s
星下点 3.80°N, 175.98°W
发射日期 Mar 21, 2020
运行时间 5.7 years
类型 internet

技术详情

分类 Payload
质量 148.00 kg
干质量 140.00 kg
总质量 148.00 kg
长度 1.30 m
直径 1.00 m
跨度 5.00 m
形状 Trapezoid+2 pan
制造商 ONEWUS
平台类型 ARROW
阶段状态 In Orbit
所有者/国家 ONEWEB/UK

大型星座

Loading constellations...